Location: Saint-Palais-sur-Mer
(45.6429°N, 1.0859°W)
Time: 00:16:34
(UTC+01:00)

Vanguard 1 - Pass Details

Date: 14 February 2026
Orbit: 653 x 3818 km, 34.2° (Epoch: 12 March)

Event Time Altitude Azimuth Distance (km) Brightness Sun altitude
Rises 22:00:28 0° 275° (W) 6,764 15.2 -36.9°
Reaches altitude 10° 22:04:42 10° 270° (W) 6,076 14.7 -37.6°
Maximum altitude 22:23:52 47° 205° (SSW) 4,526 13.2 -40.7°
Enters shadow 22:30:24 41° 173° (S) 4,807 13.1 -41.7°
